Location: Prairie State College
(41.5244°N, 87.6382°W)
Time: 14:09:36
(UTC-05:00)

MSX - Visible Passes

Search period start: 01 September 2014 00:00
Search period end: 11 September 2014 00:00
Orbit: 896 x 905 km, 98.8° (Epoch: 31 August)

Date Brightness Start Highest point End Pass type
(mag) Time Alt. Az. Time Alt. Az. Time Alt. Az.
01 Sep 4.1 20:06:01 10° SE 20:11:29 48° ENE 20:17:00 10° N visible
01 Sep 5.8 21:48:49 10° SSW 21:53:25 25° W 21:58:03 10° NW visible
02 Sep 4.1 20:08:47 10° SE 20:14:18 51° ENE 20:19:52 10° N visible
02 Sep 5.8 21:51:48 10° SW 21:56:17 23° W 22:00:47 10° NW visible
03 Sep 4.0 20:11:34 10° SE 20:17:07 54° ENE 20:22:44 10° N visible
03 Sep 5.9 21:54:49 10° SW 21:59:09 22° W 22:03:31 10° NW visible
04 Sep 4.0 20:14:21 10° SSE 20:19:57 57° ENE 20:25:35 10° N visible
04 Sep 6.0 21:57:50 10° SW 22:02:01 21° W 22:06:14 10° NW visible
05 Sep 3.9 20:17:08 10° SSE 20:22:46 60° ENE 20:28:27 10° N visible
05 Sep 6.1 22:00:51 10° SW 22:04:53 20° W 22:08:57 10° NW visible
06 Sep 3.9 20:19:56 10° SSE 20:25:36 63° ENE 20:31:18 10° N visible
06 Sep 6.1 22:03:54 10° SW 22:07:45 18° W 22:11:39 10° NW visible
07 Sep 3.8 20:22:44 10° SSE 20:28:25 67° ENE 20:34:09 10° N visible
07 Sep 6.2 22:06:58 10° SW 22:10:38 17° W 22:14:20 10° NW visible
08 Sep 3.8 20:25:33 10° SSE 20:31:15 71° ENE 20:37:00 10° N visible
08 Sep 6.3 22:10:02 10° SW 22:13:30 16° W 22:16:59 10° NW visible
09 Sep 3.8 20:28:21 10° SSE 20:34:05 75° ENE 20:39:51 10° N visible
09 Sep 6.3 22:13:09 10° SW 22:16:23 15° W 22:19:38 10° NW visible
10 Sep 3.8 20:31:10 10° SSE 20:36:55 79° ENE 20:42:42 10° N visible
10 Sep 6.4 22:16:17 10° WSW 22:19:15 14° W 22:22:15 10° WNW visible
